Regional Weather Roundup
Issued by NWS

Home | Current Version | Previous Version | Text Only | Print | Product List | Glossary Off
Versions: 1 2 3 4 5 6 7 8 9 10 11 12 13 14 15 16 17 18 19 20 21 22 23 24 25 26 27 28 29 30 31 32 33 34 35 36 37 38 39 40 41 42 43 44 45 46 47 48 49 50

000
ASUS43 KDTX 311201
RWRMI
MICHIGAN HOURLY REGIONAL WEATHER ROUNDUP
NATIONAL WEATHER SERVICE DETROIT/PONTIAC MI
800 AM EDT WED AUG 31 2016

NOTE: "FAIR" INDICATES FEW OR NO CLOUDS BELOW 12,000 FEET WITH NO
SIGNIFICANT WEATHER AND/OR OBSTRUCTION TO VISIBILITY.

MIZ047>049-052>055-059>063-066>070-074>076-081>083-311300-
SOUTHEAST LOWER MICHIGAN

CITY           SKY/WX    TMP DP  RH WIND       PRES   REMARKS
ADRIAN         CLOUDY    68  68 100 CALM      30.03R FOG
6HR MIN TEMP:  67; 6HR MAX TEMP:  69;

ALMA           MOCLDY    67  66  99 N5        30.05R
6HR MIN TEMP:  66; 6HR MAX TEMP:  71;

ANN ARBOR      PTSUNNY   70  70 100 SW3       30.00S
BAD AXE        CLOUDY    63  58  86 CALM      30.02F
CARO           CLOUDY    65  61  86 CALM      30.02S
DETROIT CITY   CLOUDY    71  68  90 W3        30.00R
6HR MIN TEMP:  71; 6HR MAX TEMP:  75; 6HR PCP: TRACE;

DETROIT        CLOUDY    71  69  93 NW5       30.00S
6HR MIN TEMP:  71; 6HR MAX TEMP:  73; 6HR PCP: TRACE;

FLINT          CLOUDY    70  67  90 NE9       30.01S
6HR MIN TEMP:  69; 6HR MAX TEMP:  72;

GROSSE ILE     CLOUDY    70  68  93 W3        29.99S
6HR MIN TEMP:  70; 6HR MAX TEMP:  72;

HILLSDALE      CLOUDY    69  68  96 NW3       30.03R FOG
6HR MIN TEMP:  51; 6HR MAX TEMP:  84;

HOWELL         CLOUDY    70  69  98 CALM      30.01S FOG
6HR MIN TEMP:  69; 6HR MAX TEMP:  71;


CITY           SKY/WX    TMP DP  RH WIND       PRES   REMARKS
JACKSON        CLOUDY    69  69 100 NW3       30.02S
6HR MIN TEMP:  68; 6HR MAX TEMP:  70;

LAMBERTVILLE   CLOUDY    71  69  94 CALM      30.01S FOG
6HR MIN TEMP:  69; 6HR MAX TEMP:  72;

LANSING        CLOUDY    69  67  93 N7        30.03R
6HR MIN TEMP:  69; 6HR MAX TEMP:  71; 6HR PCP:  0.17;

LAPEER         CLOUDY    69  65  88 N6        30.02R
6HR MIN TEMP:  68; 6HR MAX TEMP:  73;

MASON          CLOUDY    69  68  97 N5        30.02R FOG
MONROE         CLOUDY    70  70 100 CALM      30.00S FOG
6HR MIN TEMP:  68; 6HR MAX TEMP:  70;

MT. CLEMENS    CLOUDY    71  71  99 N3        29.97S FOG
6HR MIN TEMP:  70; 6HR MAX TEMP:  74; 6HR PCP:  0.17;

PONTIAC        CLOUDY    70  69  97 N6        30.00S FOG
6HR MIN TEMP:  68; 6HR MAX TEMP:  72; 6HR PCP:  1.27;

PORT HOPE        N/A     67  61  81 NW8       30.00S
6HR MIN TEMP:  67; 6HR MAX TEMP:  71;

PORT HURON     CLOUDY    70  68  94 N3        30.00R
TRI CITIES     CLOUDY    66  58  75 N10       30.04R
6HR MIN TEMP:  65; 6HR MAX TEMP:  71;

MIDLAND        CLOUDY    64  59  83 CALM      30.04R
6HR MIN TEMP:  64; 6HR MAX TEMP:  69;

TROY           CLOUDY    72  68  89 CALM      30.02R
SAGINAW HB     MOSUNNY   64  59  82 CALM      30.02S
$$
MIZ043>046-050>051-056>058-064>065-071>073-077>080-311300-
SOUTHWEST LOWER MICHIGAN

CITY           SKY/WX    TMP DP  RH WIND       PRES   REMARKS
BATTLE CREEK   CLOUDY    69  69 100 N6        30.04R FOG
6HR MIN TEMP:  68; 6HR MAX TEMP:  69;

BENTON HARBOR  PTCLDY    70  67  90 CALM      30.02R FOG
6HR MIN TEMP:  70; 6HR MAX TEMP:  73;

BIG RAPIDS     CLOUDY    63  57  83 CALM      30.07R
6HR MIN TEMP:  63; 6HR MAX TEMP:  72; 6HR PCP:  0.06;

COLDWATER      FOG       69  69 100 CALM      30.03R VSB 1/2
6HR MIN TEMP:  68; 6HR MAX TEMP:  69;

FREMONT        CLOUDY    62  57  86 NE6       30.06R
HOLLAND        CLOUDY    72  70  93 N3        30.04R FOG
6HR MIN TEMP:  68; 6HR MAX TEMP:  72;

GRAND RAPIDS   CLOUDY    71  68  90 NE6       30.04R FOG
6HR MIN TEMP:  70; 6HR MAX TEMP:  72;

IONIA          FAIR      66  64  91 NE3       30.03R
6HR MIN TEMP:  66; 6HR MAX TEMP:  70;

KALAMAZOO      CLOUDY    72  68  87 N6        30.03R FOG
6HR MIN TEMP:  70; 6HR MAX TEMP:  72;

LUDINGTON      CLEAR     58  55  92 CALM      30.08R
6HR MIN TEMP:  58; 6HR MAX TEMP:  69;

MARSHALL       CLOUDY    71  70  98 CALM      30.03R FOG
6HR MIN TEMP:  68; 6HR MAX TEMP:  71;

MOUNT PLEASANT CLOUDY    64  56  73 N5        30.05R
6HR MIN TEMP:  64; 6HR MAX TEMP:  72;

MUSKEGON       CLOUDY    69  58  67 NE8       30.05R
6HR MIN TEMP:  68; 6HR MAX TEMP:  73;

SOUTH HAVEN    CLOUDY    70  70  99 CALM      30.02R FOG
$$
MIZ016>042-311300-
NORTHERN LOWER MICHIGAN

CITY           SKY/WX    TMP DP  RH WIND       PRES   REMARKS
ALPENA         SUNNY     57  54  89 W5        30.04R
6HR MIN TEMP:  55; 6HR MAX TEMP:  61;

BEAVER ISLAND  CLEAR     62  57  84 CALM      30.08S
6HR MIN TEMP:  60; 6HR MAX TEMP:  63;

BELLAIRE       CLEAR     54  53  97 CALM      30.08R
6HR MIN TEMP:  51; 6HR MAX TEMP:  64;

CADILLAC       CLEAR     57  54  87 CALM      30.08R
CHARLEVOIX     CLEAR     66  58  74 N8        30.10R
6HR MIN TEMP:  64; 6HR MAX TEMP:  66;

FRANKFORT      CLEAR     57  54  89 CALM      30.08R
GAYLORD        CLEAR     59  54  83 CALM      30.08R
6HR MIN TEMP:  58; 6HR MAX TEMP:  64;

GRAYLING       CLEAR     55  53  95 CALM      30.08S
HARBOR SPRINGS CLEAR     59  56  91 N7        30.07R
HOUGHTON LAKE  CLEAR     60  55  83 NW3       30.08R
6HR MIN TEMP:  58; 6HR MAX TEMP:  67;

MANISTEE       CLEAR     55  54  96 CALM      30.08R
OSCODA         CLOUDY    59  57  94 NW7       30.02R
6HR MIN TEMP:  58; 6HR MAX TEMP:  64;

PELLSTON       CLEAR     57  56  96 CALM      30.07S
6HR MIN TEMP:  51; 6HR MAX TEMP:  57;

ROGERS CITY    MOSUNNY   62  58  87 NW7       30.06R
TRAVERSE CITY  PTCLDY    66  57  72 N5        30.06R
6HR MIN TEMP:  64; 6HR MAX TEMP:  70;

$$
MIZ007>008-015-311300-
EASTERN UPPER MICHIGAN

CITY           SKY/WX    TMP DP  RH WIND       PRES   REMARKS
KINROSS        CLEAR     55  54  96 CALM      30.07S
6HR MIN TEMP:  53; 6HR MAX TEMP:  56;

MACKINAC ISLAN CLEAR     58  58 100 N6        30.07R
6HR MIN TEMP:  57; 6HR MAX TEMP:  59;

NEWBERRY       CLEAR     58  57  97 W5        30.08S
6HR MIN TEMP:  54; 6HR MAX TEMP:  58;

S. S. MARIE    CLEAR     59  55  87 CALM      30.06R
6HR MIN TEMP:  57; 6HR MAX TEMP:  63;

MUNISING         N/A     54  53  97 S6        30.10R
6HR MIN TEMP:  53; 6HR MAX TEMP:  65;

$$
MIZ004>006-011>014-085-311300-
CENTRAL UPPER MICHIGAN

CITY           SKY/WX    TMP DP  RH WIND       PRES   REMARKS
MANISTIQUE     CLEAR     56  54  92 NW7       30.09S
6HR MIN TEMP:  51; 6HR MAX TEMP:  56;

ESCANABA       CLEAR     51  51 100 NW3       30.12R
6HR MIN TEMP:  49; 6HR MAX TEMP:  53;

MENOMINEE      PTCLDY   N/A N/A N/A NW6       30.12S
SAWYER-GWINN   CLEAR     46  46 100 CALM      30.13R
$$
MIZ001>003-009>011-084-311300-
WESTERN UPPER MICHIGAN

CITY           SKY/WX    TMP DP  RH WIND       PRES   REMARKS
IRON MOUNTAIN  CLEAR     50  47  89 NW3       30.13R
6HR MIN TEMP:  47; 6HR MAX TEMP:  54;

HOUGHTON       PTCLDY    57  54  89 NW7       30.14R
6HR MIN TEMP:  52; 6HR MAX TEMP:  57;

COPPER HARBOR    N/A     65  59  81 N9        30.12R
6HR MIN TEMP:  58; 6HR MAX TEMP:  65;

IRONWOOD       CLEAR     47  47 100 CALM      30.19S
6HR MIN TEMP:  46; 6HR MAX TEMP:  51;

$$

ABBREVIATIONS USED IN REMARKS
   TC - TEMPERATURE IN CELSIUS
  WCI - WIND CHILL INDEX
   HX - HEAT INDEX
  VSB - VISIBILITY





USA.gov is the U.S. government's official web portal to all federal, state and local government web resources and services.